sat.trackr.live / text

‹ back to catalog

STARLINK-35556

NORAD 66238 · 2025-245E

PAYLOAD ACTIVE UNKNOWN

§ Identity

Operator
Country
US
Launch date
2025-10-29
Launch site
AFETR
Launch vehicle
Mass (kg)
RCS (m²)

Purposes: comms

External: N2YO · Heavens-Above · Gunter

§ Orbital elements

Epoch: 2026-09-19T23:38:47.709888Z

Period
93.85 min
Inclination
53.1581°
Eccentricity
0.0001000
Mean motion
15.34407399 rev/d
Perigee alt
462.0 km
Apogee alt
463.4 km
Semi-major
6,840.8 km
B*
5.0332e-4
RAAN
96.4780°
Arg perigee
98.1044°
Mean anomaly
262.0072°
Rev number
5,107

§ Raw data

STARLINK-355561 66238U 25245E   26262.98527442  .00016671  00000+0  50332-3 0  99982 66238  53.1581  96.4780 0001000  98.1044 262.0072 15.34407399 51078

JSON: /api/v1/satellites/66238 · /tle

For live sub-satellite position, see the globe view (requires WebGL).

§ Visibility from observer

Set your observer location to see the next 7 days of passes ≥ 10°. The values pass through the URL so the page stays shareable.

No JS? Fill the form by hand. The geolocation button needs JavaScript.